sat.trackr.live / text

‹ back to catalog

HULIANWANG DIGUI-172

NORAD 69575 · 2026-137D

PAYLOAD ACTIVE UNKNOWN

§ Identity

Operator
Country
PRC
Launch date
2026-06-17
Launch site
WSC
Launch vehicle
Mass (kg)
RCS (m²)

External: N2YO · Heavens-Above · Gunter

§ Orbital elements

Epoch: 2026-09-20T00:22:40.718784Z

Period
108.33 min
Inclination
49.9960°
Eccentricity
0.0000258
Mean motion
13.29324166 rev/d
Perigee alt
1,149.1 km
Apogee alt
1,149.5 km
Semi-major
7,527.5 km
B*
9.0842e-5
RAAN
255.7775°
Arg perigee
349.7048°
Mean anomaly
10.3819°
Rev number
1,294

§ Raw data

HULIANWANG DIGUI-1721 69575U 26137D   26263.01574906 -.00000082  00000+0  90842-4 0  99992 69575  49.9960 255.7775 0000258 349.7048  10.3819 13.29324166 12944

JSON: /api/v1/satellites/69575 · /tle

For live sub-satellite position, see the globe view (requires WebGL).

§ Visibility from observer

Set your observer location to see the next 7 days of passes ≥ 10°. The values pass through the URL so the page stays shareable.

No JS? Fill the form by hand. The geolocation button needs JavaScript.